User: anonymous   Login
Location: Muenchen
(48.1800°N, 11.5800°E)
Time: 16:16:14
(UTC+01:00)
Language:

ISS - Orbit

View from above orbital plane
View from above orbital plane
View from above satellite
View from above satellite

Ground track
Ground track

The orbit data is extracted from the following two-line orbital elements,

1 25544U 98067A   17025.54341961  .00016717  00000-0  10270-3 0  9027
2 25544  51.6402  29.4183 0007380 118.2539 241.9359 15.54159359 39567
Epoch (UTC): 25 January 2017 13:02:31
Eccentricity: 0.0007380
inclination: 51.6402°
perigee height: 399 km
apogee height: 409 km
right ascension of ascending node: 29.4183°
argument of perigee: 118.2539°
revolutions per day: 15.54159359
mean anomaly at epoch: 241.9359°
orbit number at epoch: 3956

The dashed part of the orbit path shows where the satellite is in the earth's shadow,  

DLR